Huntingburg, IN

3:06 PM EDT on July 22, 2017 (GMT -0400)
Huntingburg

Weather History for KHNB - January, 2014

Change the Weather History Date:

Tuesday, January 14, 2014

  Actual Average Record
Temperature  
Mean Temperature 38 °F -  
Max Temperature 51 °F 36 °F 57 °F (2016)
Min Temperature 26 °F 22 °F -2 °F (1997)
Degree Days  
Heating Degree Days 27    
Moisture  
Dew Point 31 °F    
Average Humidity 78    
Maximum Humidity 93    
Minimum Humidity 54    
Precipitation  
Precipitation 0.00 in - - ()
Sea Level Pressure  
Sea Level Pressure 29.90 in    
Wind  
Wind Speed 8 mph (West)    
Max Wind Speed 21 mph    
Max Gust Speed 25 mph    
Visibility 9 miles    
Events      
Averages and records for this station are not official NWS values.
T = Trace of Precipitation, MM = Missing Value Source: NWS Daily Summary

Daily Weather History Graph

Daily Weather History Graph

Search for Another Location

Airport or City:

Trip Planner

Search our weather history database for the weather conditions in past years. The results will help you decide how hot, cold, wet, or windy it might be!

Date:

Astronomy

Jan. 14, 2014 Rise Set
Actual Time 8:03 AM EST 5:50 PM EST
Civil Twilight 7:34 AM EST 6:19 PM EST
Nautical Twilight 7:02 AM EST 6:52 PM EST
Astronomical Twilight 6:30 AM EST 7:23 PM EST
Moon 4:55 PM EST (1/14) 6:38 AM EST (1/14)
Length of Visible Light 10h 44m
Length of Day
9h 47m
Waxing Gibbous, 98% of the Moon is Illuminated
Jan 14
Waxing Gibbous
Jan 15
Full
Jan 24
Last Quarter
Jan 30
New
Feb 6
First Quarter

Hourly Weather History & Observations

Time (EST) Temp. Windchill Dew Point Humidity Pressure Visibility Wind Dir Wind Speed Gust Speed Precip Events Conditions
12:15 AM 41.0 °F 35.2 °F 33.8 °F 76% 29.85 in 10.0 mi NNW 9.2 mph 16.1 mph N/A   Clear
12:35 AM 39.2 °F 33.6 °F 33.8 °F 81% 29.85 in 10.0 mi NNW 8.1 mph - N/A   Clear
12:55 AM 39.2 °F 34.2 °F 33.8 °F 81% 29.85 in 10.0 mi NNW 6.9 mph - N/A   Clear
1:15 AM 37.4 °F 32.1 °F 33.8 °F 87% 29.85 in 10.0 mi NW 6.9 mph - N/A   Clear
1:35 AM 37.4 °F 32.8 °F 32.0 °F 81% 29.84 in 10.0 mi NW 5.8 mph - N/A   Clear
1:55 AM 37.4 °F 31.4 °F 30.2 °F 75% 29.84 in 10.0 mi NW 8.1 mph - N/A   Clear
2:15 AM 35.6 °F 28.6 °F 30.2 °F 81% 29.85 in 10.0 mi WNW 9.2 mph - N/A   Clear
2:35 AM 35.6 °F 28.6 °F 30.2 °F 81% 29.85 in 10.0 mi NW 9.2 mph - N/A   Clear
2:55 AM 35.6 °F 29.9 °F 28.4 °F 75% 29.86 in 10.0 mi NW 6.9 mph - N/A   Clear
3:15 AM 35.6 °F 29.9 °F 28.4 °F 75% 29.87 in 10.0 mi NW 6.9 mph - N/A   Clear
3:35 AM 33.8 °F 28.6 °F 28.4 °F 81% 29.87 in 10.0 mi NW 5.8 mph - N/A   Clear
3:55 AM 33.8 °F 28.6 °F 28.4 °F 81% 29.87 in 10.0 mi NW 5.8 mph - N/A   Clear
4:15 AM 33.8 °F 29.6 °F 28.4 °F 81% 29.87 in 10.0 mi NW 4.6 mph - N/A   Clear
4:35 AM 33.8 °F 30.8 °F 28.4 °F 81% 29.87 in 10.0 mi NW 3.5 mph - N/A   Clear
4:55 AM 30.2 °F - 26.6 °F 86% 29.87 in 10.0 mi Calm Calm - N/A   Clear
5:15 AM 30.2 °F - 26.6 °F 86% 29.87 in 10.0 mi Calm Calm - N/A   Clear
5:35 AM 28.4 °F 24.6 °F 26.6 °F 93% 29.87 in 10.0 mi SSW 3.5 mph - N/A   Clear
5:55 AM 28.4 °F - 24.8 °F 86% 29.87 in 6.0 mi Calm Calm - N/A   Clear
6:15 AM 28.4 °F 24.6 °F 26.6 °F 93% 29.88 in 6.0 mi WSW 3.5 mph - N/A   Clear
6:35 AM 28.4 °F - 24.8 °F 86% 29.89 in 5.0 mi Calm Calm - N/A   Clear
6:55 AM 26.6 °F - 24.8 °F 93% 29.89 in 3.0 mi Calm Calm - N/A   Clear
7:15 AM 28.4 °F 23.3 °F 24.8 °F 86% 29.89 in 5.0 mi SSW 4.6 mph - N/A   Clear
7:35 AM 26.6 °F 22.6 °F 23.0 °F 86% 29.89 in 5.0 mi South 3.5 mph - N/A   Clear
7:55 AM 26.6 °F 21.2 °F 24.8 °F 93% 29.89 in 5.0 mi SSE 4.6 mph - N/A   Clear
8:15 AM 28.4 °F 24.6 °F 26.6 °F 93% 29.88 in 4.0 mi South 3.5 mph - N/A   Clear
8:35 AM 28.4 °F 23.3 °F 24.8 °F 86% 29.88 in 4.0 mi SSE 4.6 mph - N/A   Clear
8:55 AM 28.4 °F 23.3 °F 24.8 °F 86% 29.89 in 4.0 mi SSE 4.6 mph - N/A   Clear
9:15 AM 30.2 °F 24.3 °F 28.4 °F 93% 29.88 in 5.0 mi SE 5.8 mph - N/A   Clear
9:35 AM 32.0 °F 26.4 °F 30.2 °F 93% 29.88 in 6.0 mi South 5.8 mph - N/A   Clear
9:55 AM 33.8 °F 27.0 °F 30.2 °F 87% 29.88 in 8.0 mi South 8.1 mph - N/A   Clear
10:15 AM 35.6 °F 28.0 °F 30.2 °F 81% 29.89 in 9.0 mi South 10.4 mph - N/A   Clear
10:55 AM 39.2 °F 31.2 °F 33.8 °F 81% 29.90 in 10.0 mi SSW 13.8 mph - N/A   Clear
11:15 AM 41.0 °F 33.1 °F 35.6 °F 81% 29.89 in 10.0 mi South 15.0 mph - N/A   Clear
11:35 AM 42.8 °F 35.8 °F 35.6 °F 76% 29.87 in 10.0 mi South 13.8 mph 19.6 mph N/A   Clear
11:55 AM 44.6 °F 38.4 °F 35.6 °F 71% 29.86 in 10.0 mi South 12.7 mph - N/A   Clear
12:15 PM 44.6 °F 37.8 °F 35.6 °F 71% 29.85 in 10.0 mi South 15.0 mph 20.7 mph N/A   Clear
12:35 PM 46.4 °F 39.5 °F 35.6 °F 66% 29.83 in 10.0 mi South 17.3 mph 20.7 mph N/A   Clear
12:55 PM 46.4 °F 41.1 °F 35.6 °F 66% 29.82 in 10.0 mi SSW 11.5 mph - N/A   Clear
1:15 PM 48.2 °F - 35.6 °F 62% 29.81 in 10.0 mi SSW 17.3 mph 23.0 mph N/A   Partly Cloudy
1:35 PM 48.2 °F - 37.4 °F 66% 29.80 in 10.0 mi SSW 16.1 mph 23.0 mph N/A   Clear
1:55 PM 48.2 °F - 35.6 °F 62% 29.80 in 10.0 mi SSW 15.0 mph 25.3 mph N/A   Partly Cloudy
2:15 PM 50.0 °F - 37.4 °F 62% 29.80 in 10.0 mi SSW 18.4 mph - N/A   Partly Cloudy
2:35 PM 50.0 °F - 35.6 °F 58% 29.80 in 10.0 mi SW 12.7 mph - N/A   Partly Cloudy
2:55 PM 50.0 °F - 37.4 °F 62% 29.81 in 10.0 mi WSW 13.8 mph 18.4 mph N/A   Mostly Cloudy
3:15 PM 50.0 °F - 33.8 °F 54% 29.81 in 10.0 mi WSW 15.0 mph 23.0 mph N/A   Overcast
3:35 PM 48.2 °F - 33.8 °F 58% 29.83 in 10.0 mi West 20.7 mph 24.2 mph N/A   Overcast
3:55 PM 46.4 °F 39.5 °F 33.8 °F 62% 29.85 in 10.0 mi WNW 17.3 mph 24.2 mph N/A   Overcast
4:15 PM 42.8 °F 34.3 °F 33.8 °F 70% 29.87 in 10.0 mi WNW 19.6 mph - N/A   Overcast
4:35 PM 41.0 °F 32.5 °F 35.6 °F 81% 29.89 in 10.0 mi WNW 17.3 mph - N/A   Overcast
4:55 PM 39.2 °F 33.0 °F 35.6 °F 87% - 10.0 mi WNW 9.2 mph - N/A   Mostly Cloudy
5:15 PM 41.0 °F 35.2 °F 35.6 °F 81% 29.91 in 10.0 mi WNW 9.2 mph - N/A   Scattered Clouds
5:35 PM 39.2 °F 32.5 °F 33.8 °F 81% 29.92 in 10.0 mi WNW 10.4 mph - N/A   Mostly Cloudy
5:55 PM 39.2 °F 33.6 °F 33.8 °F 81% 29.93 in 10.0 mi WNW 8.1 mph - N/A   Overcast
6:15 PM 39.2 °F 33.6 °F 33.8 °F 81% 29.95 in 10.0 mi WNW 8.1 mph - N/A   Mostly Cloudy
6:35 PM 39.2 °F 34.2 °F 33.8 °F 81% 29.95 in 10.0 mi West 6.9 mph - N/A   Partly Cloudy
6:55 PM 37.4 °F 32.1 °F 33.8 °F 87% 29.95 in 10.0 mi West 6.9 mph - N/A   Partly Cloudy
7:15 PM 37.4 °F 32.1 °F 33.8 °F 87% 29.96 in 10.0 mi West 6.9 mph - N/A   Partly Cloudy
7:35 PM 37.4 °F 30.8 °F 33.8 °F 87% 29.98 in 10.0 mi WNW 9.2 mph - N/A   Scattered Clouds
7:55 PM 37.4 °F 32.1 °F 33.8 °F 87% 29.98 in 10.0 mi WNW 6.9 mph - N/A   Mostly Cloudy
8:15 PM 37.4 °F 32.1 °F 30.2 °F 75% 29.98 in 10.0 mi WNW 6.9 mph - N/A   Partly Cloudy
8:35 PM 37.4 °F 30.8 °F 30.2 °F 75% 29.99 in 10.0 mi NW 9.2 mph - N/A   Mostly Cloudy
8:55 PM 37.4 °F 30.3 °F 28.4 °F 70% 30.00 in 10.0 mi NW 10.4 mph - N/A   Scattered Clouds
9:15 PM 37.4 °F 29.8 °F 26.6 °F 65% 30.00 in 10.0 mi NNW 11.5 mph 18.4 mph N/A   Scattered Clouds
9:35 PM 35.6 °F 25.5 °F 26.6 °F 70% 30.01 in 10.0 mi NNW 17.3 mph 20.7 mph N/A   Mostly Cloudy
9:55 PM 35.6 °F 28.6 °F 24.8 °F 65% 30.01 in 10.0 mi NNW 9.2 mph - N/A   Scattered Clouds
10:15 PM 33.8 °F 28.6 °F 24.8 °F 70% 30.01 in 10.0 mi NW 5.8 mph - N/A   Partly Cloudy
10:35 PM 33.8 °F 28.6 °F 23.0 °F 65% 30.02 in 10.0 mi NW 5.8 mph - N/A   Clear
10:55 PM 32.0 °F 27.5 °F 24.8 °F 75% 30.02 in 10.0 mi WNW 4.6 mph - N/A   Scattered Clouds
11:15 PM 32.0 °F 27.5 °F 24.8 °F 75% 30.02 in 10.0 mi NW 4.6 mph - N/A   Mostly Cloudy
11:35 PM 32.0 °F 23.6 °F 24.8 °F 75% 30.02 in 10.0 mi NW 10.4 mph - N/A   Partly Cloudy
11:55 PM 32.0 °F 23.6 °F 23.0 °F 69% 30.02 in 10.0 mi NW 10.4 mph - N/A   Clear